SL-8 DEB *, 3743

Orbit data source: Space-Track

SL-8 DEB *, 3743 is space debris in LEO originally from a launch on Mon, 15 Mar 1965 UTC launched from the Tyuratam Missile And Space Complex (TTMTR). Debris objects in space refer to the collection of defunct objects orbiting the Earth. Examples of debris include non-operational satellites, rocket bodies, and fragments generated from explosions, collisions, or faulty payload assembly.

Loading next visibility...
Identifier
3743, 1965-020ES
Orbit
LEO
Country
Flag of CISCIS
Related business
Manufacturer
Unknown
Mission
Spacecraft
Bus & Motor
Unknown
Mass
Unknown
Launch date (UTC)
1965-03-15 (61 years ago)
Launch vehicle
Unknown
Launch site
Tyuratam Missile And Space Complex (TTMTR)
Object type
Payload
Rocket body
Debris
Shape & HBR
Unknown shape, 0.1 m
Radar Cross Section
Small (<0.1 m²)

Expand to show TLE details & history
Last TLE update: 20 hours ago

TLE from 20 hours ago
0 SL-8 DEB *
1 03743U 65020ES  26126.83916637 -.00000122  00000-0 -30653-3 0  9997
2 03743  56.6642   6.6631 0260358  10.0746  61.5818 12.20721122569102
Epoch: 2026-05-06T20:08Z
TLE epoch observation values (Epoch: 2026-05-06T20:08:23.974Z)
Latitude
53.6781°
Longitude
-97.21405°
Altitude
1,502.075 km
Speed
7.161 km/s
True Right ascension
04h 38m 19s
True Declination
53° 31' 46"
Sunlit
Object was in daylight at epoch
Visualization orbit readout
Latitude
Unknown
Longitude
Unknown
Altitude
Unknown
Speed
Unknown
Apparent Right ascension
Unknown
Apparent Declination
Unknown
Sunlit
N/A
Visualization observer readout
Local Sidereal Time
00:15:59
Azimuth
Unknown
Elevation
Unknown
Doppler factor
Unknown
Orbital elements
Apogee altitude
1,796.582 km
Perigee altitude
1,381.712 km
Semi-major axis
7,967.284 km
Eccentricity
0.02604
Inclination
56.6642°
RAAN
6.6631°
Arg. of periapsis
10.0746°
True anomaly
64.24606°
Mean anomaly
61.5818°
Eccentric anomaly
62.90988°
Mean motion
3.05195 °/min
Orbital period
117.96 mins
BSTAR
-0.00030653
Loading maneuver chart data...
Computing Atmospheric mass density...

Documentation

Showing up to 5 results
|